Location: Ammerl�gen
(47.2167°N, 9.6000°E)
Time: 03:29:46
(UTC+00:00)

NOAA 19 - Pass Details

Date: 05 December 2021
Orbit: 841 x 860 km, 99.2° (Epoch: 16 January)

Event Time Altitude Azimuth Distance (km) Brightness Sun altitude
Rises 18:21:23 0° 177° (S) 3,383 8.4 -27.8°
Reaches altitude 10° 18:23:47 10° 181° (S) 2,453 7.6 -28.2°
Maximum altitude 18:29:06 54° 259° (W) 1,015 5.8 -29.1°
Drops below altitude 10° 18:34:29 10° 337° (NNW) 2,478 7.8 -30.0°
Sets 18:36:56 0° 342° (NNW) 3,421 8.6 -30.4°
